Temperature
15 15 15 15 16 16 16 16 16 16 16 16 16 16 16 16 16 16 16 16 16 16 15 15 15 16 16 15 15 15 15 15 15 15 15 15 15 15 15 15 15 15 15
16 15 15 15 15 16 16 16 16 16 16 16 16 16 16 16 16 16 15 15 15 15 15 15 15 15 15 15 15 15 15 15 15 15 15 15 15 15 15 15 15 15 15
16 15 15 15 15 15 15 15 15 15 16 16 16 16 16 16 15 15 15 15 15 15 15 15 15 15 15 15 15 15 15 15 15 15 15 15 15 15 15 15 15 15 14
15 15 15 15 15 15 15 15 15 15 15 15 16 16 15 15 15 15 15 15 15 15 15 15 15 15 15 15 15 15 14 14 15 14 14 15 15 14 15 14 14 14 14
15 15 15 15 15 15 15 15 15 15 15 15 15 15 15 15 15 15 15 15 15 15 15 15 15 15 14 14 14 14 14 14 14 14 14 14 14 14 14 14 14 14 14
15 15 15 15 15 15 15 15 15 15 15 15 15 15 15 15 15 15 15 15 14 14 15 14 14 14 14 14 14 14 14 14 14 14 14 14 14 14 14 14 14 14 14
15 15 15 15 15 15 15 15 15 15 15 15 15 15 15 15 15 14 14 14 14 14 14 14 14 14 14 14 14 14 14 14 14 14 14 13 13 13 13 13 13 13 13
15 14 14 14 14 14 14 14 14 14 14 14 14 14 14 14 14 14 14 14 14 14 14 14 14 14 14 14 14 13 13 13 13 13 13 13 13 13 13 13 13 13 13
14 14 14 14 14 14 14 14 14 14 14 14 14 14 14 14 14 14 14 14 14 14 14 14 13 13 13 13 13 13 13 13 13 13 13 13 13 13 13 13 13 12 12
14 14 14 14 14 14 14 14 13 13 14 14 14 14 14 14 14 13 13 13 14 14 14 14 13 13 13 13 13 13 13 13 13 13 13 13 13 13 12 12 12 12 12
13 13 14 14 13 13 13 13 13 13 13 13 13 13 13 13 13 13 13 13 13 13 13 13 13 13 13 13 13 13 13 13 13 13 13 12 12 12 12 12 12 12 12
13 13 13 13 13 13 13 13 13 13 13 13 13 13 13 13 13 13 13 13 13 13 13 13 13 13 13 13 13 13 13 13 13 13 12 12 12 12 12 12 12 12 11
13 13 13 13 13 13 13 13 13 13 13 13 13 13 13 13 13 13 13 13 13 13 13 13 13 13 13 13 13 13 12 12 12 12 12 12 12 12 12 12 12 12 11
13 13 13 13 13 13 13 13 13 13 13 13 12 12 13 13 12 12 12 12 12 12 12 12 12 12 12 12 12 12 12 12 12 12 12 12 12 12 11 11 11 11 11
12 12 12 12 12 12 12 12 12 12 12 12 12 12 12 12 12 12 12 12 12 12 12 12 12 12 12 12 12 12 12 12 12 12 12 12 11 11 11 11 11 11 11
12 12 12 12 12 12 12 12 12 12 12 12 12 12 12 12 12 12 12 11 11 11 11 11 11 11 12 11 11 11 11 12 12 12 11 11 11 11 11 11 10 10 10
12 12 12 12 11 11 11 11 11 11 11 11 11 11 11 11 11 11 11 11 11 11 11 11 11 11 11 11 11 11 11 11 11 11 11 11 11 10 10 10 10 10 10
12 11 11 11 11 11 11 11 11 11 11 11 11 11 11 11 10 10 10 10 10 10 10 10 10 10 10 10 10 11 10 10 10 10 10 10 10 10 10 10 10 10 10
11 11 11 11 11 11 11 11 11 11 11 11 10 10 10 10 10 10 10 10 10 10 9 10 10 10 10 10 10 10 10 10 10 10 10 10 10 10 10 10 10 9 9
11 11 11 11 11 11 11 10 10 10 10 10 10 10 10 10 9 9 9 9 9 9 9 9 9 9 9 10 10 9 9 9 9 9 9 9 9 9 9 9 9 9 9
10 10 10 10 10 10 10 10 10 10 10 9 9 9 9 9 9 9 9 9 9 9 9 9 9 9 9 9 9 9 9 9 9 9 9 9 9 9 9 9 9 9 9
10 10 10 10 10 10 10 10 10 10 9 9 9 9 9 9 9 9 8 8 8 8 8 8 8 8 8 8 8 8 8 8 8 8 8 8 8 8 8 8 8 8 8
10 10 9 9 9 9 9 9 9 9 9 9 9 8 8 8 8 8 8 8 8 8 8 8 8 8 8 8 8 8 7 7 7 7 7 8 8 8 8 8 8 8 8
9 9 9 9 9 9 9 8 8 8 8 8 8 8 8 8 8 8 7 7 8 7 7 8 8 8 8 8 7 7 7 7 7 6 6 7 7 7 7 7 7 7 7
9 8 8 8 8 8 8 8 8 8 8 8 8 8 7 7 7 7 7 7 7 7 7 7 7 7 7 7 7 7 7 7 7 6 6 6 6 6 6 7 7 7 7
8 8 8 8 8 8 8 8 8 8 8 8 7 7 7 7 7 7 7 7 7 7 7 6 7 7 7 7 7 7 7 7 6 6 6 6 6 6 6 6 6 6 6
Wind_Speed
4 6 11 11 11 11 11 12 12 12 12 13 13 13 12 12 12 12 12 12 12 12 13 13 14 14 14 14 15 15 16 16 16 16 16 15 15 16 16 16 16 15 17
8 10 12 12 12 11 11 11 12 12 12 12 12 12 12 11 11 11 11 11 12 12 12 12 13 13 13 14 15 15 15 15 15 15 15 14 15 16 16 16 16 15 17
9 11 12 13 12 12 12 12 12 12 11 11 11 11 11 11 11 10 10 11 11 11 11 12 12 12 13 13 14 14 14 14 14 14 13 12 13 15 16 16 16 16 16
10 11 12 13 13 12 12 12 12 12 11 11 11 10 10 10 10 9 10 10 11 11 11 11 11 12 12 12 13 14 14 14 13 12 11 10 11 14 15 15 16 16 16
10 11 12 13 13 12 12 12 12 11 11 11 10 10 10 10 10 9 9 10 10 10 10 11 10 11 11 11 12 12 12 12 12 11 11 10 10 13 14 14 15 15 15
8 11 12 13 13 12 12 12 11 11 11 10 10 9 9 9 9 9 9 9 9 9 10 10 10 10 10 10 11 11 12 12 11 10 10 10 10 12 13 13 13 14 14
8 10 11 12 12 12 11 11 11 10 10 9 9 9 9 9 9 9 9 9 9 9 9 9 9 9 9 9 10 10 10 10 9 9 9 8 9 11 11 12 12 12 12
9 9 10 11 11 11 11 11 10 10 9 9 9 9 9 9 9 8 8 8 8 8 8 8 8 8 8 8 9 9 9 9 8 8 7 7 9 10 10 10 11 11 11
9 8 7 8 9 10 10 10 9 9 9 8 8 8 8 8 8 8 7 8 8 8 8 8 7 7 7 7 7 8 9 9 8 6 6 6 8 9 10 10 10 10 10
7 7 6 7 7 8 8 9 9 8 9 8 7 7 7 7 7 7 6 7 7 7 7 7 6 6 6 6 7 7 8 8 7 6 5 6 7 8 9 9 9 9 9
6 5 5 5 6 6 7 7 8 8 8 8 7 7 7 6 6 5 6 6 6 6 6 6 5 5 5 5 5 6 6 6 6 5 4 6 7 7 8 8 8 8 8
6 5 4 5 5 5 5 6 6 7 7 7 6 6 6 6 5 5 6 6 6 5 4 4 4 4 4 4 4 5 4 4 5 4 5 6 7 7 7 7 7 7 7
7 6 5 5 5 5 4 5 5 5 6 6 6 6 5 5 5 5 4 4 4 4 3 2 2 2 3 3 3 3 3 3 3 3 4 6 6 6 6 7 7 6 6
6 6 5 5 4 4 5 4 5 4 4 4 4 5 5 4 3 3 3 3 3 3 2 2 2 2 2 2 3 3 3 3 3 3 4 6 5 5 5 6 6 6 5
6 5 5 5 5 4 4 3 4 3 4 4 4 4 5 4 3 3 3 3 2 2 2 2 2 2 1 1 2 3 3 3 3 3 3 5 5 5 4 5 5 5 4
5 5 5 5 5 5 4 3 3 4 4 4 4 4 5 4 4 3 2 2 2 2 2 2 2 2 2 2 2 3 3 4 4 4 3 4 5 5 4 4 4 4 4
5 4 5 5 5 5 4 3 3 4 4 3 3 4 5 4 4 4 3 2 2 2 2 2 2 2 2 1 1 2 3 3 4 4 4 3 4 3 3 3 3 3 4
4 4 4 4 5 5 4 3 2 3 3 3 3 4 4 4 4 4 3 2 2 2 3 2 1 1 1 1 1 1 2 3 3 3 4 4 4 3 2 3 2 2 2
5 5 4 4 5 4 4 3 2 2 3 3 3 3 3 4 4 4 3 2 3 2 2 2 1 1 1 1 1 1 1 2 2 3 3 3 4 3 2 3 3 3 3
4 4 4 4 3 3 3 2 2 1 1 2 2 2 2 3 3 3 3 3 3 2 1 1 1 1 1 1 1 1 1 0 2 2 2 3 3 2 2 1 1 2 4
3 4 4 3 3 3 2 3 3 2 2 1 1 2 3 3 3 4 3 3 3 3 2 2 2 2 1 1 2 1 2 1 1 1 2 2 2 2 2 1 1 0 2
4 4 4 4 3 3 2 2 2 2 1 2 1 1 2 3 3 3 3 3 3 3 3 2 2 1 1 1 2 2 0 2 2 1 0 1 1 1 1 1 1 1 1
4 5 5 4 4 3 2 2 2 1 1 1 2 2 2 3 3 3 3 4 4 4 4 4 4 3 3 1 1 2 2 2 1 2 1 0 0 1 0 0 1 1 2
4 3 4 4 3 3 3 3 4 3 3 3 3 3 2 3 3 3 3 3 4 4 4 4 4 3 4 3 1 1 2 3 2 1 2 1 1 1 1 1 1 2 2
4 3 3 3 3 3 3 4 4 3 3 2 2 2 2 2 3 3 4 3 3 3 4 4 3 3 3 3 2 1 1 1 1 2 2 2 2 2 2 2 1 1 2
3 2 2 3 3 3 3 4 5 5 4 3 3 3 3 2 2 3 4 4 3 3 4 4 4 4 3 3 2 2 2 2 3 2 3 3 3 2 3 2 1 1 2
Wind_Direction
162 156 139 130 122 116 111 107 104 101 100 99 97 96 94 93 92 89 87 88 89 87 87 87 87 87 86 86 87 85 83 82 82 81 81 83 86 85 82 80 83 84 88
152 145 136 129 124 118 113 110 109 106 104 102 101 99 97 96 95 93 92 91 90 89 89 88 88 89 89 88 87 86 84 82 82 78 77 79 82 85 84 82 84 85 86
136 137 135 131 127 121 116 112 110 108 108 106 103 101 99 98 97 96 95 94 93 91 90 89 89 91 91 89 87 86 84 81 82 80 75 74 79 84 86 85 84 83 85
131 133 133 131 127 123 119 115 112 109 110 110 106 103 101 99 99 99 99 100 97 93 92 91 92 93 93 91 89 87 85 81 80 81 74 73 81 86 86 87 87 84 85
123 128 131 130 127 124 121 117 114 111 110 109 108 107 104 101 100 101 104 106 103 98 96 93 93 93 93 90 89 88 87 82 77 77 73 73 83 89 88 88 88 88 87
119 123 129 130 129 127 124 121 118 115 112 110 109 108 107 106 102 100 105 107 106 104 101 98 96 94 91 89 87 89 90 83 76 78 75 77 86 91 92 92 92 92 90
122 122 130 130 129 127 125 122 121 118 115 114 111 108 107 108 106 103 106 108 108 107 104 101 99 96 90 88 87 91 93 82 78 80 76 80 91 95 97 98 97 95 92
126 126 131 130 127 126 124 122 121 120 118 117 114 111 109 109 109 110 110 110 112 111 108 105 102 99 92 88 89 91 93 87 82 84 80 85 97 101 101 100 99 97 96
120 118 120 128 129 127 127 126 123 124 120 117 115 113 111 109 110 109 114 114 113 115 113 110 105 104 97 90 89 89 93 92 87 85 88 91 100 104 104 102 100 101 100
117 118 116 117 125 127 127 126 125 123 120 115 110 109 109 106 106 112 111 116 116 116 117 115 110 107 103 95 90 92 91 90 91 89 99 104 106 109 109 108 104 104 103
126 125 126 122 120 121 128 131 128 124 119 113 109 105 102 99 98 106 114 115 115 115 116 117 117 110 104 99 94 98 92 92 98 96 116 122 120 120 120 115 114 111 109
152 148 138 138 136 128 131 129 128 127 120 113 112 109 103 98 94 100 108 111 110 112 116 119 121 111 99 95 92 96 95 90 99 102 126 133 132 129 129 125 122 120 120
164 157 155 148 147 139 130 129 123 123 122 116 116 117 111 102 97 94 99 100 97 94 95 106 103 113 111 106 103 102 99 96 100 105 132 137 138 138 137 136 130 126 123
161 165 165 151 144 143 136 135 130 127 127 123 126 125 117 107 105 105 106 103 97 101 101 101 108 124 119 124 128 119 110 112 112 109 129 145 148 143 147 149 145 139 135
161 168 168 154 148 142 135 137 130 134 140 135 133 137 130 122 126 126 127 114 111 116 122 116 116 118 118 132 142 134 128 125 125 120 131 152 158 153 151 155 154 153 152
171 175 168 161 156 143 140 139 141 142 141 137 137 144 141 132 135 135 129 117 108 121 131 139 142 134 130 129 138 144 144 141 135 123 131 148 159 165 169 170 173 173 174
175 168 164 164 152 148 145 140 140 141 136 135 143 148 147 140 140 138 132 126 119 113 107 107 111 109 102 106 146 150 140 142 143 135 131 133 145 158 168 170 169 179 182
162 151 156 154 150 155 155 149 135 137 135 137 140 143 154 154 147 140 141 150 135 112 105 115 107 111 106 111 157 171 129 130 133 138 131 131 130 138 162 176 165 178 194
167 153 148 147 157 165 164 150 135 132 135 135 129 134 154 157 159 152 153 150 135 118 118 131 110 123 134 113 155 149 126 136 134 130 120 127 127 129 147 193 204 217 229
163 148 143 145 151 155 156 132 123 114 135 118 127 148 155 162 162 157 153 148 137 135 135 131 134 105 132 152 130 99 79 130 119 124 128 124 123 122 116 141 179 233 238
149 143 143 145 155 150 157 166 175 194 201 186 174 166 165 169 168 159 161 161 155 164 171 161 145 140 120 107 92 60 9 10 113 138 130 122 110 111 104 113 135 198 259
165 160 158 162 167 166 176 185 184 180 202 208 209 186 179 179 174 172 172 175 175 172 169 170 150 147 173 140 129 130 35 348 349 318 161 163 142 115 100 213 204 222 261
174 181 179 182 176 175 163 142 118 95 55 238 219 215 204 191 187 183 185 184 182 178 186 192 176 166 186 218 164 145 154 207 300 319 294 238 336 24 23 267 239 234 244
192 188 180 178 172 176 170 167 166 183 205 225 219 219 223 202 193 188 189 189 189 184 192 200 189 187 179 197 229 214 170 162 171 271 305 300 306 276 284 294 252 242 246
185 178 174 167 170 176 178 182 179 195 214 219 213 212 218 217 204 196 191 189 192 193 197 198 193 193 189 195 200 185 159 150 150 188 242 274 307 274 268 258 227 236 249
174 171 168 161 181 184 177 182 186 195 206 204 216 218 222 229 219 204 197 196 197 194 199 200 193 193 198 197 201 187 173 174 181 192 223 245 269 277 280 256 233 227 242
Height
1523 1525 1526 1527 1528 1529 1529 1530 1530 1530 1530 1530 1530 1531 1532 1532 1533 1533 1533 1533 1533 1534 1534 1534 1535 1535 1535 1535 1535 1535 1535 1536 1536 1536 1536 1535 1535 1535 1533 1532 1532 1533 1534
1522 1524 1526 1527 1528 1529 1530 1530 1531 1531 1531 1531 1532 1532 1533 1533 1533 1533 1534 1534 1534 1535 1535 1535 1536 1536 1536 1536 1536 1537 1537 1537 1537 1537 1537 1537 1537 1536 1536 1536 1536 1536 1537
1522 1524 1525 1527 1528 1529 1530 1530 1531 1531 1532 1532 1532 1533 1533 1534 1534 1534 1535 1535 1535 1535 1536 1536 1536 1537 1537 1537 1537 1538 1538 1538 1538 1538 1538 1538 1538 1538 1538 1538 1538 1538 1538
1522 1524 1525 1527 1528 1529 1530 1531 1531 1532 1532 1532 1533 1533 1534 1534 1534 1535 1535 1535 1536 1536 1536 1537 1537 1537 1538 1538 1538 1539 1539 1539 1539 1539 1539 1539 1539 1539 1539 1539 1540 1540 1540
1522 1524 1525 1527 1528 1529 1530 1531 1531 1532 1532 1533 1533 1534 1534 1534 1535 1535 1535 1536 1536 1537 1537 1537 1538 1538 1538 1539 1539 1539 1540 1540 1540 1540 1540 1540 1540 1541 1541 1541 1541 1541 1541
1522 1524 1525 1527 1528 1529 1530 1530 1531 1532 1532 1533 1533 1534 1534 1535 1535 1536 1536 1536 1537 1537 1537 1538 1538 1538 1539 1539 1539 1540 1540 1540 1541 1541 1541 1541 1541 1542 1542 1542 1542 1542 1542
1522 1523 1525 1526 1527 1528 1529 1530 1531 1532 1532 1533 1533 1534 1534 1535 1535 1536 1536 1536 1537 1537 1537 1538 1538 1539 1539 1539 1540 1540 1541 1541 1541 1541 1542 1542 1542 1542 1542 1543 1543 1543 1543
1521 1523 1525 1526 1527 1528 1529 1530 1530 1531 1532 1532 1533 1534 1534 1535 1535 1535 1536 1536 1537 1537 1537 1538 1538 1538 1539 1539 1540 1540 1541 1541 1542 1542 1542 1542 1543 1543 1543 1543 1543 1543 1544
1521 1523 1524 1525 1527 1528 1528 1529 1530 1531 1531 1532 1533 1533 1534 1534 1535 1535 1536 1536 1536 1536 1537 1537 1538 1538 1538 1539 1539 1540 1541 1541 1542 1542 1542 1543 1543 1543 1543 1543 1544 1544 1544
1521 1522 1523 1524 1526 1527 1528 1529 1529 1530 1531 1531 1532 1533 1533 1534 1534 1535 1535 1535 1536 1536 1536 1537 1537 1538 1538 1539 1539 1540 1540 1541 1541 1542 1542 1543 1543 1543 1543 1543 1544 1544 1544
1520 1521 1523 1524 1525 1526 1527 1528 1529 1529 1530 1531 1531 1532 1532 1533 1533 1534 1534 1534 1535 1535 1536 1536 1536 1537 1537 1538 1539 1539 1540 1540 1541 1541 1542 1542 1543 1543 1543 1543 1543 1544 1544
1518 1520 1521 1522 1523 1524 1525 1526 1527 1528 1529 1530 1530 1531 1531 1532 1532 1533 1533 1533 1534 1534 1535 1535 1536 1536 1537 1537 1538 1538 1539 1540 1540 1541 1541 1542 1542 1543 1543 1543 1543 1543 1544
1517 1518 1520 1521 1522 1523 1524 1525 1526 1527 1528 1528 1529 1529 1530 1530 1531 1531 1532 1532 1533 1533 1533 1534 1534 1535 1536 1536 1537 1537 1538 1539 1539 1540 1540 1541 1541 1542 1542 1542 1543 1543 1543
1516 1517 1518 1519 1520 1521 1522 1523 1524 1525 1526 1526 1527 1528 1528 1529 1529 1530 1530 1530 1531 1531 1532 1532 1533 1534 1534 1535 1536 1536 1537 1538 1538 1539 1539 1540 1540 1541 1541 1541 1542 1542 1542
1514 1515 1516 1517 1519 1520 1521 1521 1522 1523 1524 1524 1525 1526 1526 1527 1527 1528 1528 1529 1529 1530 1530 1531 1531 1532 1533 1533 1534 1535 1535 1536 1537 1537 1538 1538 1539 1539 1540 1540 1540 1540 1541
1512 1513 1514 1515 1517 1518 1519 1519 1520 1521 1522 1522 1523 1524 1524 1525 1525 1526 1526 1526 1527 1527 1528 1529 1529 1530 1531 1531 1532 1533 1534 1535 1535 1536 1536 1537 1537 1538 1538 1538 1539 1539 1539
1509 1511 1512 1513 1514 1515 1517 1517 1518 1519 1519 1520 1521 1521 1522 1523 1523 1524 1524 1524 1525 1525 1526 1527 1527 1528 1529 1529 1530 1531 1532 1533 1533 1534 1534 1535 1535 1536 1536 1536 1537 1537 1537
1507 1508 1509 1511 1511 1513 1514 1515 1515 1516 1517 1518 1518 1519 1520 1520 1521 1521 1522 1522 1522 1523 1524 1524 1525 1526 1526 1527 1528 1529 1529 1530 1531 1532 1532 1533 1533 1534 1534 1534 1534 1535 1535
1504 1505 1506 1508 1509 1510 1511 1512 1513 1513 1514 1515 1516 1516 1517 1518 1519 1519 1520 1520 1520 1521 1521 1522 1523 1523 1524 1525 1525 1526 1527 1528 1529 1529 1530 1530 1531 1531 1532 1532 1532 1533 1533
1502 1503 1504 1505 1506 1507 1508 1509 1510 1510 1511 1512 1513 1514 1514 1515 1516 1517 1517 1517 1518 1518 1519 1520 1520 1521 1522 1522 1523 1524 1524 1525 1526 1527 1527 1528 1528 1529 1529 1529 1529 1530 1530
1499 1499 1500 1502 1503 1504 1505 1505 1506 1507 1508 1509 1510 1511 1511 1512 1513 1514 1514 1515 1515 1515 1516 1517 1518 1519 1519 1520 1521 1521 1522 1523 1523 1524 1525 1525 1526 1526 1526 1526 1527 1527 1527
1496 1496 1498 1499 1500 1501 1502 1502 1503 1504 1505 1506 1507 1507 1508 1509 1510 1510 1511 1511 1512 1513 1513 1514 1515 1515 1516 1518 1518 1518 1519 1521 1520 1521 1522 1522 1523 1523 1523 1523 1524 1524 1524
1493 1494 1495 1496 1496 1497 1498 1499 1500 1501 1502 1503 1503 1504 1505 1505 1506 1507 1508 1508 1509 1509 1510 1511 1512 1512 1513 1515 1515 1516 1517 1516 1517 1518 1519 1520 1520 1520 1520 1520 1521 1521 1521
1490 1491 1492 1493 1493 1494 1495 1496 1496 1497 1498 1499 1500 1500 1501 1502 1503 1504 1505 1505 1506 1506 1507 1508 1509 1509 1510 1511 1512 1513 1514 1514 1516 1515 1517 1517 1517 1518 1518 1518 1518 1518 1518
1487 1488 1489 1490 1490 1491 1492 1493 1493 1494 1495 1496 1497 1497 1498 1499 1499 1500 1501 1502 1502 1503 1504 1505 1505 1506 1507 1508 1509 1509 1511 1511 1512 1512 1512 1513 1514 1515 1515 1515 1514 1514 1515
1484 1485 1486 1487 1487 1488 1489 1489 1490 1491 1492 1493 1493 1493 1494 1495 1495 1496 1497 1498 1499 1499 1500 1501 1502 1503 1504 1505 1506 1506 1507 1507 1508 1509 1509 1509 1509 1510 1511 1511 1511 1511 1511